FW3855 Weather Reports


Display with metric or nautical units.
time (UTC)temp
F
wind
direction
speed
MPH
gust
MPH
rain 1hr
in
rain 24hr
in
rain mn
in
humidity
%
barometer
mb
20260509005524 87 235 4.0 10.0 0.00 0.00 0.00 1 1014.2
20260509005020 87 20 3.0 9.0 0.00 0.00 0.00 1 1014.3
20260509004512 87 309 4.0 8.0 0.00 0.00 0.00 1 1014.3
20260509004007 88 298 5.0 15.0 0.00 0.00 0.00 1 1014.3
20260509003501 88 309 6.0 15.0 0.00 0.00 0.00 1 1014.5
20260509003002 88 283 4.0 15.0 0.00 0.00 0.00 1 1014.4
20260509002447 89 332 2.0 9.0 0.00 0.00 0.00 1 1014.4
20260509001941 88 327 3.0 10.0 0.00 0.00 0.00 1 1014.3
20260509001436 88 303 5.0 13.0 0.00 0.00 0.00 1 1014.4
20260509000930 88 314 4.0 13.0 0.00 0.00 0.00 1 1014.5
20260509000425 89 306 4.0 10.0 0.00 0.00 0.00 1 1014.4
20260508235919 88 285 6.0 12.0 0.00 0.00 0.00 1 1014.5
20260508235413 88 311 5.0 13.0 0.00 0.00 0.00 1 1014.5
20260508234907 89 358 4.0 13.0 0.00 0.00 0.00 1 1014.5
20260508233347 89 293 3.0 7.0 0.00 0.00 0.00 1 1014.6
20260508232843 88 330 5.0 14.0 0.00 0.00 0.00 1 1014.5
20260508231830 88 285 5.0 11.0 0.00 0.00 0.00 1 1014.6
20260508230312 88 290 4.0 9.0 0.00 0.00 0.00 1 1014.8
20260508225306 88 278 7.0 15.0 0.00 0.00 0.00 1 1014.9
20260508224755 89 288 5.0 15.0 0.00 0.00 0.00 1 1014.8
20260508224247 89 314 4.0 9.0 0.00 0.00 0.00 1 1014.8
20260508223744 88 354 4.0 9.0 0.00 0.00 0.00 1 1014.9
20260508223236 88 94 5.0 11.0 0.00 0.00 0.00 1 1014.9
20260508222729 88 309 7.0 14.0 0.00 0.00 0.00 1 1015.1
20260508221213 88 31 6.0 13.0 0.00 0.00 0.00 1 1015.1
20260508220706 89 319 6.0 16.0 0.00 0.00 0.00 1 1015.2
20260508215653 88 318 5.0 12.0 0.00 0.00 0.00 1 1015.2
20260508215147 88 330 4.0 11.0 0.00 0.00 0.00 1 1015.4
20260508214641 89 340 5.0 11.0 0.00 0.00 0.00 1 1015.4
20260508214136 89 333 5.0 16.0 0.00 0.00 0.00 1 1015.6
20260508213632 89 340 3.0 16.0 0.00 0.00 0.00 1 1015.6
20260508212617 89 316 4.0 9.0 0.00 0.00 0.00 1 1015.9
20260508212112 89 259 5.0 15.0 0.00 0.00 0.00 1 1016.0
20260508211605 88 290 6.0 15.0 0.00 0.00 0.00 1 1016.0
20260508211100 89 340 4.0 10.0 0.00 0.00 0.00 1 1016.0
20260508210553 89 10 3.0 11.0 0.00 0.00 0.00 1 1016.1
20260508210049 89 287 4.0 11.0 0.00 0.00 0.00 1 1016.2
20260508205541 88 124 4.0 10.0 0.00 0.00 0.00 1 1016.4
20260508205038 88 162 5.0 15.0 0.00 0.00 0.00 1 1016.4
20260508203521 87 203 5.0 11.0 0.00 0.00 0.00 1 1016.6
20260508202507 87 56 6.0 14.0 0.00 0.00 0.00 1 1016.5
20260508201959 86 347 6.0 14.0 0.00 0.00 0.00 1 1016.5
20260508200442 86 293 5.0 14.0 0.00 0.00 0.00 1 1016.7
20260508195936 86 259 6.0 14.0 0.00 0.00 0.00 1 1016.8
20260508195429 87 303 6.0 14.0 0.00 0.00 0.00 1 1016.8
20260508194926 87 17 5.0 14.0 0.00 0.00 0.00 1 1016.8
20260508193911 86 291 5.0 12.0 0.00 0.00 0.00 1 1016.8
20260508193406 86 280 5.0 12.0 0.00 0.00 0.00 1 1016.9
20260508192901 86 6 4.0 10.0 0.00 0.00 0.00 2 1016.9
20260508192354 87 317 3.0 9.0 0.00 0.00 0.00 1 1017.0
20260508191352 86 45 4.0 14.0 0.00 0.00 0.00 2 1017.0
20260508190853 85 283 4.0 14.0 0.00 0.00 0.00 2 1017.0
20260508190354 85 296 6.0 14.0 0.00 0.00 0.00 2 1017.2
20260508185850 85 11 6.0 14.0 0.00 0.00 0.00 2 1017.2
20260508185350 86 281 5.0 11.0 0.00 0.00 0.00 2 1017.2
20260508184853 85 294 6.0 19.0 0.00 0.00 0.00 2 1017.3
20260508184351 85 5 4.0 19.0 0.00 0.00 0.00 2 1017.4
20260508183853 84 249 5.0 14.0 0.00 0.00 0.00 3 1017.3
20260508183349 83 229 7.0 15.0 0.00 0.00 0.00 3 1017.4
20260508182854 83 314 6.0 15.0 0.00 0.00 0.00 2 1017.5
20260508182354 84 291 5.0 12.0 0.00 0.00 0.00 2 1017.4
20260508181851 84 287 4.0 11.0 0.00 0.00 0.00 2 1017.4
20260508180848 84 259 4.0 11.0 0.00 0.00 0.00 2 1017.5
20260508180348 84 303 4.0 14.0 0.00 0.00 0.00 2 1017.6
20260508175843 83 274 5.0 14.0 0.00 0.00 0.00 2 1017.6
20260508175344 83 271 5.0 13.0 0.00 0.00 0.00 3 1017.6
20260508174344 84 339 4.0 9.0 0.00 0.00 0.00 2 1017.6
20260508173847 84 198 4.0 9.0 0.00 0.00 0.00 3 1017.6
20260508172844 82 309 4.0 11.0 0.00 0.00 0.00 3 1017.6
20260508171843 83 291 3.0 11.0 0.00 0.00 0.00 3 1017.6
20260508171344 83 195 2.0 7.0 0.00 0.00 0.00 3 1017.6
20260508170847 82 300 3.0 8.0 0.00 0.00 0.00 3 1017.6
20260508165850 81 288 3.0 8.0 0.00 0.00 0.00 4 1017.6
20260508165350 81 287 3.0 10.0 0.00 0.00 0.00 4 1017.7
20260508164842 82 294 2.0 10.0 0.00 0.00 0.00 3 1017.7
20260508164343 82 250 2.0 8.0 0.00 0.00 0.00 4 1017.7
20260508163340 82 264 3.0 7.0 0.00 0.00 0.00 4 1017.7
20260508162839 81 262 3.0 10.0 0.00 0.00 0.00 4 1017.6
20260508162338 81 326 3.0 10.0 0.00 0.00 0.00 4 1017.6
20260508161841 82 258 3.0 9.0 0.00 0.00 0.00 4 1017.5
20260508161337 81 274 2.0 9.0 0.00 0.00 0.00 4 1017.5
20260508160838 82 290 2.0 10.0 0.00 0.00 0.00 4 1017.5
20260508160334 81 186 3.0 10.0 0.00 0.00 0.00 4 1017.5
20260508155835 80 200 2.0 6.0 0.00 0.00 0.00 5 1017.4
20260508154832 81 344 2.0 6.0 0.00 0.00 0.00 4 1017.4
20260508154333 80 122 2.0 7.0 0.00 0.00 0.00 4 1017.5
20260508153830 81 288 3.0 7.0 0.00 0.00 0.00 4 1017.5
20260508153335 81 295 3.0 8.0 0.00 0.00 0.00 4 1017.4
20260508152830 80 186 2.0 8.0 0.00 0.00 0.00 4 1017.4
20260508151834 80 298 2.0 5.0 0.00 0.00 0.00 5 1017.4
20260508150834 80 294 2.0 6.0 0.00 0.00 0.00 5 1017.4
20260508145832 80 218 2.0 7.0 0.00 0.00 0.00 5 1017.4
20260508145331 79 269 3.0 9.0 0.00 0.00 0.00 5 1017.4
20260508144825 79 217 4.0 9.0 0.00 0.00 0.00 6 1017.3
20260508144326 79 191 3.0 9.0 0.00 0.00 0.00 6 1017.4
20260508143829 79 134 2.0 7.0 0.00 0.00 0.00 5 1017.4
20260508143326 78 276 2.0 6.0 0.00 0.00 0.00 5 1017.4
20260508142817 77 136 3.0 6.0 0.00 0.00 0.00 5 1017.3
20260508142312 77 164 3.0 8.0 0.00 0.00 0.00 5 1017.3
20260508141807 77 169 4.0 9.0 0.00 0.00 0.00 6 1017.2
20260508141259 77 229 4.0 9.0 0.00 0.00 0.00 6 1017.0
20260508140754 76 188 4.0 9.0 0.00 0.00 0.00 7 1017.0
20260508140249 76 101 4.0 9.0 0.00 0.00 0.00 7 1016.9
20260508135742 76 174 4.0 10.0 0.00 0.00 0.00 7 1016.9
20260508135237 75 192 5.0 10.0 0.00 0.00 0.00 7 1016.9
20260508134731 75 169 4.0 10.0 0.00 0.00 0.00 7 1016.9
20260508134224 74 162 4.0 10.0 0.00 0.00 0.00 8 1016.8
20260508133718 74 159 3.0 7.0 0.00 0.00 0.00 8 1016.8
20260508133211 74 214 2.0 8.0 0.00 0.00 0.00 8 1016.8
20260508132201 72 206 2.0 7.0 0.00 0.00 0.00 8 1016.7
20260508131653 71 173 2.0 6.0 0.00 0.00 0.00 9 1016.6
20260508131148 71 199 2.0 6.0 0.00 0.00 0.00 9 1016.6
20260508130640 71 183 3.0 6.0 0.00 0.00 0.00 8 1016.6
20260508130135 70 172 2.0 6.0 0.00 0.00 0.00 8 1016.5
20260508125628 70 123 2.0 5.0 0.00 0.00 0.00 8 1016.5
20260508125124 70 247 2.0 5.0 0.00 0.00 0.00 8 1016.5
20260508124110 70 153 2.0 6.0 0.00 0.00 0.00 8 1016.4
20260508123604 70 215 2.0 6.0 0.00 0.00 0.00 8 1016.2
20260508123059 70 224 2.0 6.0 0.00 0.00 0.00 8 1016.2
20260508122551 70 169 3.0 9.0 0.00 0.00 0.00 8 1016.2
20260508121033 70 203 4.0 10.0 0.00 0.00 0.00 8 1016.2
20260508120531 70 200 4.0 10.0 0.00 0.00 0.00 8 1016.2
20260508120024 69 219 3.0 6.0 0.00 0.00 0.00 8 1016.1
20260508115519 69 208 3.0 6.0 0.00 0.00 0.00 8 1016.2
20260508115015 70 169 3.0 8.0 0.00 0.00 0.00 7 1016.1
20260508114506 70 155 3.0 8.0 0.00 0.00 0.00 7 1016.1
20260508113454 70 196 1.0 5.0 0.00 0.00 0.00 7 1016.2
20260508112946 70 240 2.0 6.0 0.00 0.00 0.00 6 1016.2
20260508112442 71 260 2.0 6.0 0.00 0.00 0.00 6 1016.2
20260508111933 70 188 3.0 10.0 0.00 0.00 0.00 6 1016.0
20260508111427 70 230 3.0 10.0 0.00 0.00 0.00 6 1016.0
20260508110922 70 164 3.0 9.0 0.00 0.00 0.00 6 1016.1
20260508110417 71 224 2.0 8.0 0.00 0.00 0.00 6 1016.1
20260508105909 71 147 2.0 5.0 0.00 0.00 0.00 6 1016.1
20260508105406 71 210 2.0 8.0 0.00 0.00 0.00 6 1016.2
20260508104900 72 292 3.0 10.0 0.00 0.00 0.00 6 1016.4
20260508104359 72 274 4.0 12.0 0.00 0.00 0.00 6 1016.2
20260508103845 72 227 3.0 12.0 0.00 0.00 0.00 6 1016.4
20260508102833 71 284 2.0 9.0 0.00 0.00 0.00 6 1016.2
20260508102330 71 252 2.0 7.0 0.00 0.00 0.00 6 1016.1
20260508101315 70 255 2.0 4.0 0.00 0.00 0.00 6 1016.2
20260508100810 70 226 2.0 7.0 0.00 0.00 0.00 6 1016.2
20260508095252 70 233 2.0 5.0 0.00 0.00 0.00 5 1016.2
20260508094746 70 175 2.0 4.0 0.00 0.00 0.00 4 1016.4
20260508094246 70 163 2.0 4.0 0.00 0.00 0.00 3 1016.4
20260508093745 70 216 1.0 4.0 0.00 0.00 0.00 3 1016.4
20260508092747 71 185 2.0 7.0 0.00 0.00 0.00 2 1016.5
20260508092246 71 246 2.0 7.0 0.00 0.00 0.00 2 1016.2
20260508091743 71 133 1.0 6.0 0.00 0.00 0.00 2 1016.2
20260508090242 72 188 2.0 10.0 0.00 0.00 0.00 2 1016.2
20260508085741 71 221 1.0 10.0 0.00 0.00 0.00 2 1016.4
20260508085241 71 125 1.0 6.0 0.00 0.00 0.00 1 1016.4
20260508084746 72 103 1.0 7.0 0.00 0.00 0.00 1 1016.5
20260508083745 73 242 4.0 10.0 0.00 0.00 0.00 2 1016.5
20260508083248 73 282 5.0 11.0 0.00 0.00 0.00 2 1016.5
20260508082738 73 101 4.0 11.0 0.00 0.00 0.00 1 1016.6
20260508082229 73 220 4.0 11.0 0.00 0.00 0.00 1 1016.5
20260508081722 73 283 4.0 11.0 0.00 0.00 0.00 2 1016.5
20260508081221 73 267 4.0 10.0 0.00 0.00 0.00 2 1016.5
20260508080719 73 221 4.0 11.0 0.00 0.00 0.00 2 1016.6
20260508080219 72 292 3.0 11.0 0.00 0.00 0.00 2 1016.5
20260508075719 72 231 2.0 6.0 0.00 0.00 0.00 2 1016.6
20260508075223 72 165 3.0 8.0 0.00 0.00 0.00 1 1016.6
20260508074718 72 158 3.0 11.0 0.00 0.00 0.00 1 1016.7
20260508074219 71 210 2.0 11.0 0.00 0.00 0.00 2 1016.7
20260508073721 71 259 2.0 7.0 0.00 0.00 0.00 2 1016.7
20260508072715 69 234 2.0 7.0 0.00 0.00 0.00 3 1016.7
20260508072217 66 229 2.0 4.0 0.00 0.00 0.00 4 1016.7
20260508071717 66 181 2.0 4.0 0.00 0.00 0.00 4 1016.8
20260508071215 65 219 2.0 4.0 0.00 0.00 0.00 4 1016.7
20260508070714 65 207 1.0 4.0 0.00 0.00 0.00 4 1016.7
20260508070221 64 182 1.0 3.0 0.00 0.00 0.00 4 1016.7
20260508065718 65 197 1.0 3.0 0.00 0.00 0.00 4 1016.6
20260508065218 65 177 2.0 4.0 0.00 0.00 0.00 3 1016.6
20260508064723 66 192 3.0 5.0 0.00 0.00 0.00 3 1016.6
20260508064216 66 219 3.0 5.0 0.00 0.00 0.00 3 1016.7
20260508063719 66 197 3.0 4.0 0.00 0.00 0.00 3 1016.7
20260508062215 64 188 2.0 4.0 0.00 0.00 0.00 3 1016.7
20260508061215 64 191 1.0 3.0 0.00 0.00 0.00 3 1016.6
20260508060718 64 170 2.0 3.0 0.00 0.00 0.00 3 1016.6
20260508060215 64 179 1.0 3.0 0.00 0.00 0.00 3 1016.6
20260508055715 65 187 0.0 2.0 0.00 0.00 0.00 3 1016.5
20260508055217 66 197 1.0 2.0 0.00 0.00 0.00 2 1016.6
20260508054215 68 170 1.0 3.0 0.00 0.00 0.00 2 1016.5
20260508053717 69 90 1.0 5.0 0.00 0.00 0.00 1 1016.5
20260508053211 69 201 1.0 5.0 0.00 0.00 0.00 1 1016.4
20260508052710 69 192 1.0 3.0 0.00 0.00 0.00 1 1016.4
20260508052211 70 212 1.0 4.0 0.00 0.00 0.00 1 1016.4
20260508051715 71 211 2.0 4.0 0.00 0.00 0.00 1 1016.5
20260508051209 71 214 3.0 6.0 0.00 0.00 0.00 1 1016.6
20260508050711 72 211 3.0 7.0 0.00 0.00 0.00 1 1016.5
20260508050206 72 245 4.0 7.0 0.00 0.00 0.00 1 1016.6
20260508045705 72 203 4.0 6.0 0.00 0.00 0.00 1 1016.7
20260508045159 73 149 3.0 6.0 0.00 0.00 0.00 1 1016.7
20260508044655 72 209 2.0 6.0 0.00 0.00 0.00 1 1016.7
20260508044148 72 243 1.0 4.0 0.00 0.00 0.00 1 1016.7
20260508043652 72 230 1.0 3.0 0.00 0.00 0.00 1 1016.7
20260508043149 73 207 2.0 4.0 0.00 0.00 0.00 1 1016.6
20260508042145 73 303 2.0 6.0 0.00 0.00 0.00 1 1016.7
20260508041646 74 303 3.0 6.0 0.00 0.00 0.00 1 1016.7
20260508041146 74 242 2.0 6.0 0.00 0.00 0.00 1 1016.6
20260508040646 73 236 1.0 5.0 0.00 0.00 0.00 1 1016.6
20260508040145 73 296 1.0 5.0 0.00 0.00 0.00 1 1016.6
20260508035644 73 234 1.0 6.0 0.00 0.00 0.00 1 1016.5
20260508035144 74 272 2.0 6.0 0.00 0.00 0.00 1 1016.5
20260508034643 74 295 2.0 5.0 0.00 0.00 0.00 1 1016.5
20260508033644 74 293 3.0 8.0 0.00 0.00 0.00 1 1016.5
20260508033141 74 294 3.0 8.0 0.00 0.00 0.00 1 1016.2
20260508032641 73 306 2.0 5.0 0.00 0.00 0.00 1 1016.2
20260508032141 73 267 2.0 8.0 0.00 0.00 0.00 1 1016.2
20260508031636 73 291 2.0 8.0 0.00 0.00 0.00 1 1016.2
20260508030117 74 284 2.0 8.0 0.00 0.00 0.00 1 1016.1
20260508025611 74 293 2.0 8.0 0.00 0.00 0.00 1 1016.1
20260508024559 74 296 1.0 5.0 0.00 0.00 0.00 2 1015.9
20260508024054 74 302 1.0 6.0 0.00 0.00 0.00 2 1015.8
20260508023548 75 107 2.0 6.0 0.00 0.00 0.00 2 1015.8
20260508023041 75 295 3.0 8.0 0.00 0.00 0.00 2 1015.7
20260508022536 76 301 3.0 9.0 0.00 0.00 0.00 2 1015.6
20260508022032 76 257 4.0 9.0 0.00 0.00 0.00 2 1015.6
20260508021020 76 291 2.0 6.0 0.00 0.00 0.00 2 1015.3
20260508015459 77 309 2.0 7.0 0.00 0.00 0.00 2 1015.2
20260508014954 78 285 2.0 7.0 0.00 0.00 0.00 2 1015.2
20260508014447 80 317 3.0 7.0 0.00 0.00 0.00 1 1015.1
20260508013942 81 281 3.0 7.0 0.00 0.00 0.00 1 1015.1
20260508013436 81 323 3.0 7.0 0.00 0.00 0.00 1 1015.0
20260508012423 81 308 4.0 10.0 0.00 0.00 0.00 1 1015.0
20260508011917 81 328 4.0 10.0 0.00 0.00 0.00 1 1015.0
20260508011412 82 343 3.0 7.0 0.00 0.00 0.00 1 1015.1
20260508010906 82 290 3.0 7.0 0.00 0.00 0.00 1 1015.0
20260508010402 82 299 4.0 8.0 0.00 0.00 0.00 1 1015.0
20260508005853 82 331 4.0 9.0 0.00 0.00 0.00 1 1015.0